Theta_e
340 337 332 328 328 331 334 338 339 338 338 339 339 339 339 339 338 337 336 334 331 328 320 318 323 322 325 329 329 329 328 326 321 317 316 319 320 319 319 321 324 323 319 311 317 323 322 325 324 322 318 314 312 311 311 311 311 310 311 312 313 313 314 316 319 321 319 319 322 323 325 325 325 326 325 325 326 325 325 325 325 325 325 325 325
340 336 331 329 327 329 333 337 338 339 339 339 339 339 340 339 338 337 336 334 331 324 316 318 321 320 326 328 326 327 326 324 321 320 321 320 320 319 320 324 325 324 321 312 316 324 323 323 320 317 312 311 311 310 311 311 311 311 311 311 312 314 316 319 322 324 323 321 321 322 324 325 325 326 325 324 324 325 325 325 325 325 325 325 325
339 336 331 329 326 327 332 336 338 339 339 339 339 339 340 339 338 337 335 333 329 318 315 321 320 322 329 327 324 322 320 318 316 320 322 320 319 320 322 326 326 323 320 312 316 321 320 316 312 311 310 311 311 310 311 310 311 311 312 312 313 316 318 321 324 325 325 324 322 321 321 323 325 326 325 324 323 323 324 325 325 326 326 325 325
337 337 332 329 327 325 332 336 337 339 339 340 339 339 339 338 338 336 335 332 325 316 318 322 319 323 328 325 322 319 318 315 314 319 322 319 319 320 323 325 324 323 319 314 317 316 312 311 310 311 311 311 311 311 311 311 311 311 312 313 315 319 321 323 324 325 325 325 324 322 320 322 324 325 326 324 323 322 322 324 325 325 326 326 326
337 338 333 330 327 324 329 336 337 339 339 340 340 339 339 338 338 336 336 332 323 315 319 322 321 323 324 322 319 318 318 315 314 320 323 322 320 320 321 323 324 324 322 317 314 313 311 311 311 311 311 311 311 311 310 311 311 311 313 313 316 322 324 325 325 325 325 325 324 323 320 321 324 324 325 325 324 323 322 323 324 325 325 326 326
337 338 334 331 329 323 324 331 336 338 340 340 340 339 339 338 338 337 335 330 321 316 320 323 323 322 318 319 319 317 317 316 316 321 324 323 321 321 320 321 323 323 324 321 314 311 312 311 311 311 311 311 311 311 311 311 311 312 312 313 316 322 325 326 326 326 326 326 325 325 321 321 324 325 325 325 325 324 324 324 324 325 325 326 326
337 338 335 332 331 325 322 323 328 335 339 339 339 339 338 338 337 334 331 325 319 319 324 322 321 320 316 317 320 318 317 317 318 322 323 321 319 321 321 319 322 325 326 323 316 311 311 311 311 311 311 311 311 311 311 311 311 312 312 313 317 322 324 325 326 326 326 326 325 326 324 322 323 325 323 324 325 325 324 323 324 324 325 325 326
336 338 335 333 331 328 324 322 321 325 330 332 334 335 334 334 332 328 324 319 316 322 327 323 318 319 321 321 319 317 316 316 318 320 321 320 320 322 322 321 321 323 324 321 315 311 311 311 311 311 310 310 311 311 311 311 311 311 312 314 319 322 324 325 325 325 325 326 326 326 326 324 322 324 323 322 323 323 323 321 323 323 324 325 326
336 338 337 334 332 330 327 325 324 321 321 321 323 324 324 325 323 319 316 313 313 321 326 322 318 320 324 325 320 316 315 315 316 316 319 320 322 324 324 322 321 322 321 317 314 312 311 310 311 310 310 310 311 311 311 311 311 311 312 313 317 321 324 325 326 325 325 326 327 326 326 324 321 324 323 322 322 321 321 321 322 323 324 325 325
336 338 337 335 333 332 330 328 328 325 322 319 319 318 317 316 315 313 311 311 312 318 325 323 320 320 322 322 319 317 314 313 315 316 317 320 322 323 321 319 319 319 317 314 313 313 311 310 311 310 310 310 310 311 311 311 311 312 312 312 315 319 322 324 325 325 325 325 327 327 326 322 319 323 323 323 322 322 322 321 323 323 324 324 326
336 337 335 335 333 332 332 330 330 328 324 321 319 317 314 312 311 311 310 311 314 319 325 326 324 322 319 318 317 315 314 313 313 315 316 319 320 317 315 314 314 314 313 314 315 313 310 311 310 310 310 310 310 310 311 311 311 312 311 312 313 316 319 322 322 323 324 325 326 327 326 321 318 322 323 323 323 323 323 322 324 324 325 325 325
338 337 334 334 333 332 332 330 330 328 325 322 319 315 312 311 310 311 311 312 315 320 323 324 326 325 320 317 317 315 315 313 312 314 315 316 315 314 314 313 312 312 313 314 314 313 311 311 310 310 311 310 311 310 311 311 311 311 311 312 312 314 317 320 322 322 323 324 325 326 325 320 319 321 322 324 325 324 324 324 324 324 325 325 324
338 336 334 334 332 331 332 330 329 326 323 321 318 314 312 311 310 310 311 312 313 317 318 320 324 326 323 318 317 316 315 313 313 315 315 314 313 314 314 312 313 313 313 312 312 311 310 310 310 310 310 310 310 310 311 311 311 311 311 312 312 313 315 317 320 320 323 324 324 325 323 320 320 322 323 325 325 324 324 324 324 324 324 325 323
337 336 335 335 333 331 332 329 327 323 321 320 316 314 312 310 310 310 310 311 311 313 314 317 322 324 324 321 317 316 315 313 313 314 314 313 313 313 312 312 313 312 312 312 311 310 311 310 311 310 310 311 310 311 311 311 311 311 311 311 312 314 316 319 320 319 321 324 324 323 322 321 321 323 325 325 325 325 324 323 323 323 323 323 322
337 336 335 334 333 333 331 330 327 323 320 318 315 312 311 309 310 310 310 311 311 312 312 315 320 322 324 323 318 316 315 313 313 313 313 313 313 313 312 312 312 312 311 311 311 311 311 310 311 310 311 311 311 311 311 311 311 311 312 311 312 314 317 319 321 319 318 322 322 322 323 322 321 321 324 324 324 325 324 323 323 323 323 322 321
336 335 335 332 332 333 331 330 328 324 321 318 315 311 310 309 309 309 310 310 310 312 311 314 317 319 322 322 318 316 315 314 313 313 313 313 313 312 312 312 312 311 311 310 311 310 310 310 311 311 311 311 311 311 311 312 311 312 312 311 312 314 317 317 319 317 315 319 319 321 323 323 322 320 322 324 323 324 324 324 323 324 324 321 320
336 335 334 332 331 331 331 330 329 326 322 318 315 311 309 309 309 309 309 310 310 311 311 313 315 317 320 320 318 317 315 314 314 314 313 313 313 312 312 312 312 311 311 311 310 310 310 310 311 311 311 311 311 311 311 312 312 312 312 311 312 314 317 315 316 315 315 318 318 320 322 322 323 319 321 324 323 324 324 324 324 323 322 321 320
335 334 334 333 332 331 330 329 329 328 323 319 316 312 309 309 309 309 310 310 310 310 311 313 313 314 316 317 317 316 315 314 314 314 314 313 313 312 312 312 311 311 311 311 310 310 310 310 311 311 311 311 311 311 312 312 312 312 312 312 313 314 315 313 316 318 317 318 317 319 321 322 324 319 318 323 323 323 323 324 325 322 321 320 319
334 332 333 334 334 333 331 328 328 328 325 321 317 313 310 309 309 308 310 310 309 310 310 312 312 312 312 313 314 314 315 314 314 314 314 314 313 313 312 312 312 311 311 311 311 311 311 311 311 311 311 311 311 311 312 312 312 312 312 312 313 314 313 314 317 318 318 316 315 319 321 322 324 320 316 319 322 322 323 325 325 322 320 320 318
333 331 332 334 333 334 333 330 327 326 326 322 319 316 312 310 309 308 309 310 309 310 310 311 311 311 311 312 313 313 314 314 315 315 314 314 313 312 312 312 311 311 311 311 311 311 311 311 311 311 311 311 311 311 311 311 311 312 312 312 313 314 313 316 318 318 316 314 314 319 323 323 324 322 316 318 321 322 323 325 326 323 321 319 315
331 330 332 333 332 333 334 332 329 326 325 323 320 317 315 311 310 309 308 309 309 309 310 310 311 310 310 311 312 312 313 314 315 315 314 313 313 312 312 312 311 311 312 311 311 311 311 311 311 311 311 311 311 311 311 311 311 312 312 312 314 314 313 317 319 318 314 311 314 319 322 323 324 322 318 319 322 324 323 325 325 323 320 317 314
330 330 331 332 332 332 333 333 331 330 327 325 324 320 316 313 311 310 308 309 309 309 310 310 310 310 310 310 310 311 311 312 313 314 314 314 313 313 312 312 311 311 312 312 312 311 311 311 310 311 311 311 311 311 312 312 313 313 314 314 314 313 314 317 318 316 312 311 313 317 321 323 324 324 322 320 321 324 324 324 325 322 320 316 315
331 330 330 331 332 332 332 332 332 332 330 329 328 324 319 315 312 311 309 308 308 309 309 310 310 310 309 309 310 310 310 310 311 312 313 313 313 313 312 312 312 311 312 312 312 311 311 311 310 311 311 311 311 311 312 312 313 313 315 315 315 315 314 316 317 316 313 310 312 316 320 323 324 324 325 322 319 322 323 323 323 321 319 318 317
332 331 331 331 333 332 332 332 331 331 330 329 328 326 322 318 315 312 310 309 308 308 309 309 309 309 309 309 309 310 313 313 312 311 310 311 312 312 312 311 311 311 312 312 311 311 311 311 311 310 311 311 311 311 311 312 313 315 315 315 317 317 315 315 316 317 315 311 312 315 320 323 323 323 325 324 319 321 322 321 321 320 318 317 316
331 332 332 331 332 333 333 332 332 330 328 328 327 325 323 321 317 314 311 309 308 307 308 308 308 309 308 310 308 312 321 318 311 310 309 310 310 311 311 311 311 311 311 311 311 311 311 311 311 310 310 311 311 311 311 311 313 315 316 317 317 316 315 315 315 317 316 313 312 314 319 321 322 323 325 326 323 322 322 321 320 319 317 314 313
330 331 330 330 331 333 334 333 332 330 327 326 325 324 323 322 319 317 315 312 310 308 308 307 308 308 307 309 307 313 324 320 311 310 309 309 309 309 310 310 311 310 311 311 311 311 311 311 311 310 310 310 311 311 310 311 312 314 316 317 316 315 316 317 316 317 317 314 312 313 317 320 321 323 325 325 325 324 322 321 319 317 314 311 310
328 327 328 329 330 332 334 333 333 332 329 327 326 324 322 320 320 321 320 316 314 312 311 309 312 316 313 311 309 315 323 321 314 312 310 309 309 308 309 310 310 310 310 311 311 311 310 311 310 310 310 310 311 311 310 310 310 311 313 314 315 315 316 319 317 317 317 315 312 312 315 319 320 322 324 325 324 324 323 322 320 318 314 309 307
327 326 326 325 326 329 331 331 332 332 331 329 327 326 323 319 319 322 321 319 320 318 316 314 318 321 318 315 316 319 322 322 318 316 313 310 309 308 308 309 309 309 310 310 311 311 311 310 310 310 310 310 310 310 310 310 310 311 312 313 314 314 315 318 317 316 317 315 312 312 313 317 320 320 322 323 323 324 324 323 322 321 317 308 304
325 322 322 320 320 322 325 326 328 330 331 330 327 327 326 322 319 319 319 319 321 321 322 320 317 318 317 317 318 317 319 320 318 318 316 311 309 309 308 308 308 309 309 309 310 310 310 310 310 310 310 310 310 310 310 309 310 310 312 314 314 314 314 315 316 316 317 315 313 312 312 314 318 320 321 321 321 323 324 324 323 321 319 314 306
324 321 320 319 318 318 320 320 322 325 328 329 328 327 327 326 322 319 317 316 316 318 320 321 318 316 315 316 315 312 313 314 315 316 315 312 310 308 308 308 308 308 308 308 309 309 310 310 310 310 310 310 310 309 309 309 309 310 312 314 315 315 314 316 318 318 317 316 314 313 312 312 315 318 320 320 319 320 323 324 323 322 321 319 312
322 321 319 319 319 318 318 319 318 319 322 324 326 327 326 326 325 322 320 317 315 314 315 316 317 317 317 316 314 311 310 310 311 312 312 311 310 308 308 308 308 308 308 308 308 308 309 309 309 309 309 309 309 309 309 309 309 310 312 314 315 316 315 316 319 319 318 317 316 315 314 312 312 314 317 318 318 319 321 323 324 323 320 320 317
320 320 320 319 320 320 319 319 318 318 318 319 321 325 326 325 324 323 322 320 318 316 314 313 313 315 316 316 314 311 309 309 309 309 310 310 309 309 308 308 308 308 308 308 308 308 308 308 308 308 309 309 309 309 309 308 309 309 311 313 315 316 316 315 317 318 318 317 318 318 315 313 313 312 313 315 316 317 318 321 323 323 321 319 318
320 319 320 320 320 320 320 320 319 318 317 316 317 319 323 325 326 324 323 322 321 319 317 315 313 312 314 314 313 311 309 309 308 309 310 310 309 308 308 308 308 308 308 308 307 308 308 308 308 308 308 308 308 308 308 308 308 309 310 314 316 317 317 316 316 318 318 317 317 318 317 316 314 313 313 313 314 315 314 317 321 323 322 320 318
320 320 320 319 319 320 320 320 320 320 319 318 317 316 318 322 325 327 325 324 323 322 320 319 317 315 313 312 312 311 310 309 309 309 309 309 309 308 308 308 308 308 308 307 307 308 308 307 307 308 308 308 308 308 308 308 308 308 309 313 317 318 318 317 316 317 318 317 316 316 316 317 316 314 314 313 313 313 312 313 319 322 321 320 318
321 320 320 319 319 319 320 320 321 321 320 320 319 318 317 318 321 325 327 326 325 323 322 322 320 319 318 316 314 313 311 310 309 309 309 309 309 308 308 308 308 308 307 307 307 307 308 307 307 307 307 308 307 307 307 308 308 308 309 313 317 319 319 318 317 317 318 318 317 316 316 316 316 315 314 314 313 312 312 312 316 320 320 319 318
325 323 322 320 319 319 319 319 320 321 321 321 321 320 319 318 318 320 324 327 327 326 324 323 322 321 321 320 319 317 315 313 312 311 310 309 309 308 308 308 308 308 308 307 308 307 307 307 307 307 307 307 307 307 307 308 308 307 308 313 318 320 320 319 318 318 319 319 318 317 317 316 316 316 315 315 314 312 311 311 313 317 318 318 318
327 325 323 322 321 320 319 319 320 320 321 321 322 322 321 321 319 319 320 323 326 328 327 325 323 323 322 322 322 321 320 318 316 315 314 313 311 310 309 308 308 308 308 308 308 308 307 307 307 307 308 308 307 308 307 307 308 307 309 313 317 320 321 320 319 319 320 320 319 318 317 317 316 316 316 316 315 314 312 311 310 313 317 319 318
325 324 323 322 321 321 320 320 321 321 321 321 321 321 322 322 322 321 320 320 322 324 327 327 325 324 323 323 322 322 322 321 319 319 318 317 315 313 311 310 309 308 308 308 308 308 307 307 308 308 308 308 308 308 308 307 307 307 309 313 316 319 320 320 319 319 319 320 319 318 318 318 317 316 316 316 316 316 315 313 311 310 313 316 317
324 324 323 323 323 321 321 321 321 322 322 322 321 321 322 323 323 323 322 321 320 320 322 325 326 326 325 324 323 322 322 322 321 320 320 320 319 317 315 313 310 309 309 308 308 308 308 308 308 308 308 308 308 308 308 307 307 307 310 314 317 319 320 320 320 319 318 319 319 318 318 318 318 317 317 316 316 317 316 316 314 313 312 313 314
325 325 325 325 324 323 322 321 322 323 324 324 323 323 322 322 322 323 323 322 321 319 319 320 322 324 325 326 325 323 322 321 321 321 321 321 320 320 319 317 313 311 310 310 310 309 309 309 309 309 308 308 308 308 308 307 307 310 313 318 319 320 321 321 320 320 318 318 318 319 319 318 318 318 317 317 317 317 317 317 316 315 315 315 315
325 325 326 325 325 325 323 322 323 325 325 325 324 324 324 323 323 323 322 322 321 321 320 320 320 320 321 323 324 325 324 323 322 321 321 321 321 321 321 320 318 316 314 312 311 310 309 309 309 309 309 309 309 309 308 307 309 313 317 320 322 322 322 321 320 319 318 318 318 318 319 319 318 318 318 318 318 318 317 317 316 316 316 316 316
326 325 326 326 326 325 325 325 325 325 325 324 324 325 325 325 325 324 324 323 322 322 321 321 322 321 320 319 320 322 323 324 323 322 322 321 321 322 322 322 321 320 318 315 312 311 310 310 309 309 309 310 310 310 308 307 309 312 315 320 322 322 321 320 321 320 319 319 318 318 318 318 318 318 318 318 318 318 317 317 317 317 316 316 316
326 326 326 326 326 326 326 325 325 325 325 325 325 325 325 325 325 325 325 324 324 323 322 322 322 322 321 321 320 320 320 320 322 322 322 322 321 321 321 322 322 322 321 318 316 314 312 311 310 310 310 310 311 311 309 309 308 309 313 318 320 321 320 321 321 321 321 320 319 319 319 319 318 318 318 318 318 318 318 317 317 317 317 317 317
326 326 326 326 326 326 326 326 325 325 325 324 324 324 325 325 325 325 325 324 325 325 324 323 322 321 321 321 322 322 320 318 318 318 319 320 321 321 321 321 321 322 322 321 320 318 316 314 312 311 311 311 311 312 311 310 309 309 313 316 317 319 321 320 320 320 320 321 321 320 320 319 318 318 318 318 319 319 319 318 318 318 318 318 317
326 325 326 326 326 326 326 325 325 324 324 323 322 323 323 324 325 325 325 325 325 325 325 324 323 322 322 322 322 322 322 321 319 318 317 317 318 319 321 321 321 322 322 322 321 321 320 318 316 313 312 312 312 312 311 311 310 310 311 313 316 319 319 318 319 319 319 320 321 321 321 320 319 318 319 319 319 319 319 319 319 319 319 318 318
326 326 326 325 325 325 325 324 324 322 322 321 321 322 323 323 324 324 324 325 324 324 324 325 325 324 324 323 323 322 322 322 322 321 320 319 318 317 318 319 321 322 322 323 323 322 322 321 320 318 316 314 312 311 311 311 311 311 311 311 313 316 316 317 320 320 320 320 321 322 322 321 320 320 319 319 319 319 319 320 320 320 319 319 318
325 326 326 326 326 325 325 323 322 320 320 320 320 321 322 323 323 323 323 323 323 322 322 323 325 325 325 324 323 322 322 322 322 322 322 322 321 319 318 317 317 319 321 322 322 323 324 324 323 322 321 319 315 313 312 311 312 312 312 312 312 312 313 316 318 320 321 321 321 321 322 321 321 321 320 320 320 320 320 320 320 320 320 319 319
324 325 325 326 325 324 322 320 319 318 318 318 318 319 320 321 321 321 321 321 321 321 321 322 324 325 325 324 324 323 323 323 322 322 322 322 323 322 321 319 317 318 319 319 319 321 323 324 325 324 325 323 320 317 315 312 312 312 313 313 314 313 313 314 317 319 321 322 322 322 322 321 321 321 321 321 320 320 320 320 320 320 320 320 319
324 325 325 323 322 320 318 318 318 318 317 317 318 318 318 318 319 319 319 320 320 321 322 322 323 324 325 324 324 324 324 324 324 323 323 323 323 323 322 322 321 319 318 318 318 319 320 321 323 323 323 324 324 323 319 315 312 312 313 313 314 314 314 314 315 318 320 321 322 322 321 321 321 320 320 320 320 320 320 320 320 320 320 320 319
323 323 322 319 318 317 318 318 319 319 319 319 319 318 318 318 318 318 318 319 319 321 322 322 322 324 325 325 325 325 325 325 325 324 324 324 323 323 323 323 322 321 320 319 320 320 320 320 320 320 321 322 323 324 324 322 317 313 312 312 313 314 315 315 315 317 318 319 320 320 320 321 320 319 318 319 319 319 320 320 321 321 320 320 319
320 320 319 318 317 318 318 318 318 318 319 319 319 319 319 319 319 318 318 319 320 320 321 321 322 323 324 325 325 325 325 325 325 325 325 325 325 324 324 323 323 323 322 321 321 320 321 321 320 320 320 320 321 323 324 324 321 317 314 313 313 313 314 315 315 316 316 316 318 318 318 319 320 319 317 317 318 319 319 320 321 321 320 320 320
Wind_Speed
7 7 8 8 8 8 10 10 10 10 10 9 9 8 7 6 4 5 6 7 9 12 11 9 8 9 11 11 11 11 9 7 7 7 7 6 6 6 9 12 12 12 13 14 14 15 15 15 15 15 17 18 18 18 18 18 19 19 18 18 17 16 16 17 20 21 20 18 18 17 17 17 18 19 18 19 18 18 19 19 20 20 19 18 17
8 8 9 9 8 8 10 10 9 10 10 9 8 7 7 4 3 5 5 7 10 12 10 9 8 9 11 10 9 9 9 8 8 10 9 8 8 9 11 13 13 13 14 14 14 15 15 15 16 16 17 18 17 17 17 18 19 19 19 18 17 17 18 20 22 23 21 20 19 17 16 16 17 18 18 18 17 16 17 18 17 18 18 17 16
9 9 9 9 8 9 10 10 9 9 9 8 8 7 6 4 3 4 5 8 10 11 10 8 8 10 11 8 8 9 9 9 9 10 10 9 10 11 12 13 13 13 13 13 14 15 15 16 16 16 17 17 16 15 16 18 19 19 18 18 18 18 20 22 24 23 21 19 19 17 16 17 17 16 17 16 15 16 16 16 16 16 16 16 15
9 10 10 9 9 10 10 9 9 9 9 8 7 7 5 3 2 4 6 9 10 10 9 7 7 10 9 6 7 8 8 9 9 10 10 10 11 12 12 13 13 12 11 12 14 15 15 16 16 16 16 15 15 15 16 18 19 19 18 18 18 20 22 23 23 22 20 18 17 16 15 17 17 15 16 15 14 15 15 15 14 14 15 15 14
9 9 10 10 9 10 10 10 9 8 8 7 7 6 4 2 1 3 6 8 9 8 7 7 7 8 7 6 8 8 8 8 9 10 10 11 12 13 13 13 13 12 12 13 14 14 15 16 16 15 15 14 14 14 16 17 18 18 17 17 18 21 23 23 22 20 18 16 14 13 13 15 16 15 14 14 14 15 14 14 13 13 13 14 13
9 9 10 10 9 10 11 10 9 8 8 7 6 5 3 1 1 3 5 6 7 7 5 6 7 6 6 7 8 9 8 8 9 10 10 11 12 12 13 13 13 12 12 12 13 14 15 15 15 14 14 14 13 14 15 17 17 16 16 17 18 21 22 21 19 17 15 14 11 10 14 15 15 14 13 12 13 13 13 12 12 12 12 13 13
10 9 9 10 8 9 10 10 10 9 8 7 6 4 3 1 1 4 5 6 6 6 4 4 5 5 7 7 8 9 8 8 9 10 10 11 12 11 12 12 12 13 12 12 13 14 15 14 13 13 13 13 13 13 14 16 16 16 16 16 18 20 21 20 17 15 13 11 11 9 13 13 12 13 12 12 12 12 11 11 11 10 11 12 12
10 9 8 10 9 9 8 9 9 9 9 8 7 5 4 3 3 4 5 6 5 4 3 4 4 6 8 7 7 8 8 8 9 9 10 10 11 11 11 11 12 12 11 12 13 13 13 12 12 13 13 12 12 12 13 15 15 15 15 16 18 19 20 19 16 14 12 10 10 11 11 10 9 13 12 11 11 10 10 10 10 9 10 11 11
10 9 9 9 10 9 8 7 7 7 8 8 7 6 6 5 4 4 5 5 3 2 2 3 3 7 9 6 6 6 7 7 8 9 9 10 10 10 11 11 11 11 11 11 11 12 12 11 12 12 12 11 11 12 13 14 14 14 14 14 15 17 19 18 15 13 12 11 11 10 9 7 7 11 12 11 10 10 9 9 9 9 10 10 10
11 10 10 8 8 9 8 7 5 5 5 6 6 6 6 5 3 4 4 3 2 1 1 2 3 6 7 6 6 6 6 6 7 8 9 9 10 10 10 10 10 11 11 11 10 11 11 11 11 11 11 10 10 11 12 12 13 12 12 12 12 14 16 16 13 11 11 11 10 8 6 6 6 9 10 10 9 9 9 9 9 9 9 9 9
11 11 11 9 8 9 9 7 5 4 4 4 5 6 6 5 4 4 3 2 0 2 3 3 3 4 6 6 6 6 5 5 6 7 8 8 9 9 9 9 10 11 10 9 9 9 10 10 11 11 10 9 10 10 11 12 12 11 10 10 10 11 12 13 12 10 10 9 8 6 4 6 6 7 9 9 9 9 8 9 9 8 8 8 7
11 11 11 10 9 10 9 7 6 5 4 4 5 6 5 5 5 4 2 1 1 3 4 4 4 4 5 6 5 5 4 5 5 6 7 8 8 8 9 9 9 10 9 8 8 9 9 10 10 10 9 9 9 10 10 11 10 10 9 9 9 9 9 11 11 11 10 8 7 5 4 5 5 7 9 9 8 8 8 8 8 7 7 6 5
12 11 11 11 10 10 9 8 7 5 5 5 5 6 5 5 4 4 2 2 3 4 4 4 5 6 6 6 5 4 4 5 5 5 6 7 7 8 9 9 8 9 8 8 8 8 8 8 8 8 8 8 8 9 9 10 9 9 8 8 8 7 9 9 8 9 11 8 6 4 4 4 6 7 8 8 7 6 7 7 6 5 5 4 3
13 11 10 12 11 11 10 8 7 6 5 5 6 6 5 4 4 4 2 2 4 5 5 4 6 7 7 6 6 5 5 6 5 5 6 6 6 7 8 7 7 8 8 8 7 7 7 7 7 7 7 7 7 8 9 9 8 8 8 7 6 6 8 9 7 6 11 8 4 5 4 4 6 6 7 7 6 5 6 5 4 4 3 2 2
13 11 9 11 12 12 12 9 8 6 6 6 6 5 4 4 4 4 2 1 2 3 6 6 7 8 7 7 7 7 6 6 6 6 6 5 5 6 6 6 6 6 7 7 6 6 6 6 6 6 6 6 7 7 8 8 7 8 7 7 6 6 7 8 6 3 8 8 4 5 3 4 5 5 7 7 5 5 4 4 3 3 2 1 1
11 11 9 9 11 12 12 10 9 7 6 7 6 5 4 4 4 4 2 1 1 2 5 7 6 7 8 8 8 8 8 8 7 7 7 6 6 5 5 5 5 5 5 6 5 5 5 5 5 5 5 5 6 7 7 7 7 8 8 7 6 6 6 6 5 2 6 7 4 5 3 2 3 4 6 6 5 4 4 3 2 3 2 1 1
10 10 9 7 8 10 11 11 10 8 8 8 7 6 5 5 5 5 4 3 2 3 5 7 6 6 7 8 7 8 9 8 8 8 8 7 7 6 6 5 5 4 4 5 4 4 4 5 4 4 4 4 5 6 6 7 7 8 8 7 6 6 5 5 6 5 4 5 3 5 4 2 2 4 6 5 5 4 3 3 3 3 2 2 2
10 10 9 7 7 7 9 12 11 10 9 9 9 8 7 6 6 6 6 5 5 5 6 7 7 6 6 6 6 7 8 8 8 8 7 7 7 7 7 6 6 5 4 4 4 4 3 3 3 3 3 3 4 5 5 5 6 7 7 7 5 4 4 6 8 5 2 3 3 5 5 3 2 2 5 5 5 4 3 3 4 4 3 4 4
11 9 10 8 7 7 8 10 11 12 11 11 10 10 9 8 8 7 7 7 7 6 7 8 7 6 6 6 6 7 7 8 9 8 8 8 8 8 8 8 7 6 5 4 4 3 2 2 2 1 2 2 3 3 4 4 5 6 7 6 5 4 5 7 7 3 1 3 4 7 6 4 3 1 4 5 5 4 3 4 5 5 4 4 4
11 10 11 10 9 8 9 9 9 12 12 12 11 11 11 11 10 10 10 9 8 8 8 9 9 8 8 8 8 8 8 8 9 9 9 9 9 9 9 9 8 7 6 6 5 4 3 2 1 0 0 1 2 2 4 4 5 6 6 6 5 4 6 7 4 2 2 4 5 8 7 5 3 1 3 6 5 4 4 4 5 5 5 5 4
11 11 12 11 11 10 10 10 8 10 11 11 11 12 13 12 13 12 12 11 11 10 9 10 10 10 9 9 9 9 8 9 9 10 10 10 11 11 10 10 10 9 9 8 7 6 4 3 2 1 1 1 2 3 4 5 5 6 6 5 4 5 6 5 2 3 1 2 6 9 7 6 4 2 4 6 6 5 5 6 7 7 7 6 5
10 10 12 13 13 13 12 12 10 9 9 8 10 12 13 14 14 14 14 13 12 11 11 11 11 11 11 10 10 10 9 9 10 10 11 12 12 12 12 12 11 11 10 10 8 7 6 4 4 3 2 3 4 5 5 6 6 6 5 5 4 6 5 2 2 2 2 2 7 9 8 7 5 3 3 6 7 6 6 8 8 8 7 6 5
11 10 11 13 14 14 14 13 12 11 11 9 10 11 13 14 14 15 15 15 14 13 13 12 12 13 12 12 11 11 10 10 11 10 12 13 14 14 13 13 13 12 11 11 10 8 7 6 6 4 4 4 5 6 6 6 8 6 6 5 5 7 5 2 2 2 2 2 7 9 8 8 6 4 2 4 7 8 8 9 10 9 7 7 6
12 12 10 11 14 14 14 14 14 13 13 12 11 11 12 14 15 16 16 15 15 14 14 14 13 14 14 13 13 12 10 11 11 10 11 12 13 14 14 14 14 13 13 12 11 10 8 8 7 6 6 5 5 6 7 7 8 7 6 6 6 7 6 3 2 3 2 1 6 9 9 8 7 5 3 4 6 8 9 11 12 12 11 10 8
12 14 12 11 13 15 15 15 16 15 14 14 14 13 12 13 15 16 17 16 16 16 15 15 14 15 15 15 15 12 11 13 12 11 12 13 13 14 15 14 15 15 14 14 12 11 10 9 9 7 7 7 6 6 5 6 7 7 7 6 6 8 7 5 3 3 3 1 6 9 9 9 8 6 5 4 6 8 10 11 13 14 14 13 10
12 14 14 12 12 14 15 16 17 16 15 15 15 14 14 13 13 13 15 16 16 17 16 16 16 16 15 16 16 14 13 15 14 13 14 15 15 15 16 15 16 16 15 15 13 12 11 10 10 9 9 8 8 7 5 6 7 7 7 8 8 8 6 6 5 4 5 2 6 10 10 10 10 9 7 6 7 8 10 12 13 14 13 12 9
13 14 14 13 13 14 16 16 17 18 17 16 15 14 15 14 12 11 13 14 15 16 16 16 15 15 15 16 16 16 16 19 18 16 16 16 17 16 16 16 16 16 16 15 13 12 11 11 11 11 11 10 9 8 7 7 8 8 9 10 9 7 5 6 7 5 6 4 5 9 11 12 11 10 10 9 8 8 10 11 11 12 12 9 8
15 14 15 15 14 14 15 16 16 17 18 18 17 15 14 14 13 14 14 14 14 14 14 15 14 15 16 16 17 17 18 20 19 17 16 16 17 17 16 15 16 16 15 14 12 12 12 12 12 12 12 11 10 10 10 10 10 9 9 10 9 8 6 7 8 7 8 7 4 8 11 13 12 12 12 11 10 8 10 11 9 10 11 9 8
16 14 14 14 13 14 14 14 14 16 17 19 19 17 16 15 15 16 17 17 17 16 15 15 16 17 17 17 18 18 18 18 16 15 16 16 17 17 16 16 15 15 14 13 13 13 13 13 14 13 13 12 12 11 11 12 12 10 10 10 10 10 8 6 7 8 8 8 5 6 10 13 14 14 14 13 12 10 10 12 11 11 12 10 8
16 14 13 13 12 12 13 13 13 14 16 17 19 20 19 17 17 17 17 18 19 18 17 17 17 17 18 18 18 19 18 17 15 14 16 17 17 17 17 17 16 14 14 14 13 13 14 14 15 15 14 14 14 13 13 13 13 11 10 12 12 12 11 7 7 8 9 9 7 5 7 12 15 16 16 16 14 12 11 13 13 14 15 12 10
17 16 13 12 12 13 13 13 13 13 15 16 17 19 20 20 19 18 18 18 18 19 19 20 19 18 18 18 19 20 18 17 17 16 16 17 17 18 17 17 17 15 14 14 14 14 15 15 15 15 15 15 15 15 15 14 13 13 12 12 13 13 12 9 8 9 10 9 8 8 7 9 13 16 18 18 17 15 14 14 14 15 17 16 13
17 17 15 13 13 14 13 13 14 14 14 15 16 17 19 21 22 22 21 20 19 19 20 21 21 21 20 20 20 21 19 18 19 18 18 18 18 18 18 18 18 17 15 15 15 15 16 16 16 16 16 17 16 16 17 16 14 14 14 14 14 14 12 10 9 10 12 10 9 11 10 8 10 14 17 19 19 19 18 17 17 17 18 18 16
15 16 16 16 14 15 15 14 15 16 15 15 15 15 17 19 21 23 23 23 22 21 21 21 22 22 23 23 23 23 21 20 20 20 20 20 19 19 18 18 18 18 17 16 17 18 17 17 17 18 18 18 18 18 18 18 17 15 15 14 15 16 14 12 11 11 13 12 11 13 14 11 10 11 14 17 19 21 20 20 19 19 19 18 16
14 16 17 17 16 16 17 16 16 17 17 16 15 15 16 18 19 21 23 25 25 24 22 22 22 23 23 24 24 25 24 23 22 22 22 22 21 20 19 18 18 18 18 18 19 20 18 17 18 19 19 20 20 19 19 20 19 17 16 15 16 17 17 15 13 13 14 14 13 13 14 14 13 12 12 15 18 20 21 22 22 21 21 20 16
16 17 17 16 17 17 18 18 17 17 18 18 17 17 17 17 18 19 22 24 26 26 25 24 24 24 23 24 24 24 24 24 23 23 23 24 23 22 21 19 19 19 19 19 21 21 19 19 20 21 21 21 21 21 21 21 20 19 18 16 16 17 18 16 14 13 14 14 15 14 13 14 15 14 12 12 15 18 20 23 24 24 24 22 18
19 18 18 17 18 19 19 19 19 18 19 19 18 18 18 19 19 19 20 22 25 26 27 27 26 26 25 25 25 25 24 23 23 23 25 26 25 25 24 22 21 21 20 21 22 21 20 20 21 22 22 22 22 22 22 22 22 21 19 17 16 17 17 16 14 14 14 15 16 16 15 15 15 14 14 12 13 17 20 23 25 26 26 26 23
21 20 19 19 19 19 20 20 20 19 19 20 19 19 20 20 20 20 21 22 24 25 27 28 28 28 28 28 27 27 26 24 24 24 26 26 26 26 26 26 24 23 22 23 24 22 21 22 22 23 23 23 23 23 23 24 23 22 20 19 18 18 19 19 17 15 15 16 18 18 17 17 17 15 15 15 15 15 18 21 25 28 28 28 27
21 22 21 21 21 21 21 21 20 20 21 22 21 21 21 22 22 23 23 23 24 25 25 27 28 29 30 29 29 29 28 27 26 25 26 26 26 26 27 27 27 26 25 26 26 24 23 23 24 23 23 23 24 24 24 24 23 22 22 20 19 20 20 20 19 18 17 18 20 19 18 18 19 17 16 16 17 17 17 18 22 26 29 30 30
21 21 20 20 22 23 24 22 22 21 22 22 22 23 24 24 25 25 26 26 26 26 26 27 28 29 30 30 31 31 30 29 28 28 28 28 27 27 27 27 28 28 28 28 28 26 25 25 25 25 23 23 24 24 24 23 23 23 22 22 20 20 20 21 20 20 20 20 21 21 19 20 20 19 17 15 17 20 19 18 18 21 25 28 29
22 19 17 18 21 23 25 25 24 22 21 21 22 24 26 27 28 28 30 29 28 27 27 28 28 29 30 30 32 32 32 32 31 30 30 29 29 29 28 28 28 29 30 30 29 28 27 26 26 25 25 24 23 24 24 24 23 22 22 21 20 20 21 22 22 22 22 21 21 21 21 21 21 21 19 17 18 21 22 21 19 18 20 22 23
24 22 19 20 21 21 23 25 24 22 22 22 23 24 26 28 29 31 31 31 30 29 29 29 28 28 29 30 32 33 33 33 33 32 32 31 31 30 30 30 30 30 31 30 30 29 29 28 27 26 26 25 25 24 24 24 23 22 22 22 21 22 23 23 24 25 24 23 22 23 24 23 23 23 21 19 19 22 24 23 21 20 20 21 22
26 27 25 24 24 23 23 23 24 25 26 26 25 25 25 26 27 29 30 31 32 32 32 31 29 28 29 30 31 32 33 34 34 34 34 33 32 32 32 32 32 32 31 30 30 30 30 29 28 28 27 27 27 25 24 25 27 27 25 23 23 24 25 25 25 25 24 23 24 25 26 26 26 25 23 21 21 22 24 25 23 21 21 22 22
29 30 30 29 28 27 26 26 26 28 29 28 28 27 26 25 25 26 27 30 32 32 33 32 31 30 30 30 30 31 31 32 34 35 35 35 34 34 34 34 34 34 33 32 32 31 31 30 30 29 28 28 28 27 26 27 29 29 26 25 25 24 25 25 26 26 24 21 23 24 26 27 28 27 25 22 21 21 23 24 24 23 22 23 23
30 32 33 34 33 31 30 29 29 30 30 30 30 29 27 27 27 27 27 28 30 32 33 34 35 34 33 33 32 32 31 31 31 33 34 35 35 36 36 36 36 35 35 34 34 33 32 31 31 30 30 30 30 29 28 29 30 29 26 26 25 22 22 24 24 25 23 21 21 23 24 25 25 26 25 22 20 21 22 22 22 23 23 23 24
31 31 32 33 33 32 30 30 30 31 32 32 31 29 29 29 30 30 29 30 31 33 35 37 37 37 36 35 34 33 33 32 31 31 32 33 34 36 37 38 38 37 37 36 36 35 34 33 32 32 31 31 30 30 30 31 32 32 30 27 23 22 24 24 22 22 21 21 22 22 23 23 22 23 23 22 20 21 22 22 22 23 23 22 23
29 28 28 29 29 29 28 28 29 29 29 30 30 30 31 32 33 33 34 35 36 37 38 38 37 37 36 35 35 34 34 33 33 32 32 32 33 34 36 37 38 38 39 38 38 37 36 36 34 34 34 33 31 31 33 33 32 33 34 33 28 27 27 22 19 19 19 20 21 22 23 23 22 23 25 24 22 22 23 23 22 22 23 22 23
29 27 26 26 26 27 27 28 27 26 26 27 28 30 32 33 35 37 39 40 41 41 39 36 35 36 36 36 36 35 34 35 34 34 34 33 33 34 35 35 36 37 38 39 39 39 38 37 36 35 35 34 34 34 35 34 34 34 35 36 34 33 31 26 22 20 17 18 21 22 24 24 24 26 27 26 23 23 24 24 23 23 23 23 24
30 29 28 27 26 26 26 26 26 26 26 27 28 30 32 33 35 37 39 41 42 42 39 36 35 34 35 36 36 35 35 36 36 35 35 35 35 35 35 35 35 36 37 38 38 38 38 37 36 35 34 35 35 36 36 36 37 37 37 36 35 35 34 33 30 25 21 20 21 22 25 26 27 29 30 29 27 26 27 27 27 26 25 24 25
25 26 26 25 25 24 24 23 24 25 26 27 29 31 32 33 34 36 38 40 41 40 39 36 35 35 35 36 36 36 36 36 37 36 36 36 36 36 36 35 35 35 36 36 36 36 36 36 36 35 35 35 35 36 37 38 39 39 38 38 37 35 35 36 36 34 31 29 27 29 29 28 31 34 35 34 33 31 30 30 29 29 28 27 26
22 24 24 25 24 21 20 19 20 21 22 25 28 30 32 33 35 37 39 40 39 39 39 38 36 36 36 36 36 37 37 37 38 38 38 38 38 38 38 37 36 36 36 36 36 36 36 36 35 35 35 35 35 35 36 37 39 40 40 40 39 38 37 37 38 39 39 39 38 38 36 34 37 39 39 39 39 37 34 32 31 31 31 30 28
17 20 21 22 20 17 16 18 20 22 23 25 27 29 31 33 35 37 38 39 38 38 39 39 39 37 37 37 36 37 37 38 39 39 40 39 38 39 38 37 37 37 37 36 36 36 36 36 35 35 35 35 35 35 36 36 37 40 41 42 42 42 41 41 40 39 40 42 42 42 41 40 41 42 41 39 39 39 38 36 34 33 33 33 32
Wind_Direction
168 160 154 149 155 146 136 130 130 133 133 133 129 126 116 110 103 87 68 42 28 24 27 51 69 79 91 94 95 97 100 103 106 119 132 121 102 98 94 94 90 86 90 91 89 88 89 90 88 85 82 79 76 75 75 77 77 77 76 75 74 72 70 71 71 66 64 68 73 77 77 75 73 72 71 72 75 71 70 71 69 70 71 71 71
167 160 161 154 160 152 140 135 134 135 135 135 132 127 121 121 94 79 61 33 24 23 29 53 64 78 86 92 101 106 109 103 101 105 108 109 103 102 96 92 91 88 89 88 89 89 89 88 85 81 78 77 76 76 77 78 78 76 76 75 74 73 72 72 70 66 60 55 55 67 78 77 74 74 72 69 74 75 72 71 69 69 68 69 69
172 160 163 160 164 158 144 139 139 139 138 138 135 132 131 127 70 56 42 29 24 26 37 53 68 86 91 95 104 105 106 100 104 106 101 104 103 100 95 92 92 90 88 87 91 90 89 86 81 79 77 77 78 78 78 76 76 76 76 77 75 74 73 73 71 67 60 50 44 52 73 80 76 75 75 71 73 75 74 72 70 69 68 67 66
182 158 163 165 163 160 149 142 142 144 143 144 143 141 141 129 51 31 22 25 24 30 43 50 72 96 104 107 107 103 101 103 107 105 100 101 100 96 94 93 94 93 92 91 91 90 88 85 82 81 80 79 79 79 79 77 76 77 79 78 76 75 74 75 74 71 65 56 43 42 57 74 74 72 78 79 78 76 75 73 71 72 71 70 68
184 156 166 167 164 161 153 148 145 149 147 150 150 149 152 139 40 19 7 16 20 29 44 53 75 102 112 103 104 106 101 107 110 102 98 98 98 97 96 95 95 95 95 94 91 90 87 85 84 83 83 82 81 80 80 79 78 80 81 79 79 80 79 79 78 75 72 67 55 38 44 67 73 69 75 80 79 77 75 75 75 75 74 73 74
173 157 169 169 169 161 157 158 152 153 151 155 156 158 167 153 16 358 350 2 16 29 47 64 79 99 112 102 103 110 105 103 107 103 98 96 97 98 100 100 97 95 92 92 92 91 87 86 86 85 84 82 80 80 81 81 80 81 80 80 82 86 87 86 85 81 79 78 71 42 40 65 76 69 71 75 75 76 77 77 77 77 76 76 79
162 157 168 170 173 163 160 163 162 163 160 168 165 170 189 195 308 326 333 351 21 38 49 66 77 96 107 104 101 108 110 105 105 102 99 99 100 99 102 104 100 98 97 95 93 92 89 88 89 86 83 82 82 81 81 82 82 81 79 81 84 88 89 87 87 86 85 86 87 65 44 54 71 73 72 73 72 74 78 81 80 79 81 81 83
157 155 170 170 172 170 160 158 166 171 176 186 181 191 214 235 281 307 320 343 25 50 53 65 84 101 102 107 109 110 112 110 107 103 103 104 104 102 102 105 104 104 104 97 92 93 93 91 89 85 83 83 83 81 80 80 80 79 80 83 86 88 87 85 83 81 83 91 94 87 66 48 63 78 74 71 72 75 80 85 82 81 84 83 85
155 160 180 170 167 174 167 157 159 167 182 196 197 208 226 235 260 292 307 335 15 63 62 72 103 110 111 119 122 116 116 117 113 111 111 108 107 105 103 106 105 101 97 92 92 95 95 91 87 84 84 82 81 80 78 77 77 78 80 85 90 93 92 89 86 85 86 96 99 95 88 60 60 78 79 76 75 78 81 82 81 82 84 83 86
156 172 185 170 171 180 177 169 162 163 177 193 201 209 225 232 240 270 290 326 2 128 117 103 118 119 122 125 121 116 114 117 118 118 118 116 111 108 108 105 100 95 92 92 93 95 95 91 88 86 84 84 80 78 76 76 77 78 81 86 93 98 99 96 93 101 99 100 105 106 95 60 61 76 82 81 78 81 82 82 81 81 83 84 89
160 183 185 172 184 187 181 182 179 178 178 188 203 211 224 231 235 248 266 300 28 163 148 129 135 138 132 123 123 123 120 124 126 126 122 117 112 110 108 100 97 94 94 95 95 96 95 92 90 88 84 83 78 75 74 74 75 76 80 83 91 95 97 96 93 101 104 101 100 104 81 53 68 80 84 84 79 81 80 81 81 82 86 90 96
166 192 188 174 186 188 183 190 191 193 190 193 202 212 220 225 239 239 236 249 181 179 173 158 157 164 150 137 139 140 140 144 143 139 124 116 112 111 107 100 99 97 98 96 93 93 93 94 91 90 85 81 77 74 73 72 74 74 76 77 85 92 93 97 100 107 108 102 95 87 59 59 88 88 85 86 80 81 80 82 83 87 91 98 100
173 198 190 177 183 186 188 192 196 200 191 195 203 207 214 218 237 237 232 238 227 219 199 176 168 170 164 159 159 159 165 164 159 148 128 123 121 116 112 110 108 103 104 99 95 94 93 95 91 90 87 83 78 73 72 72 73 70 72 75 83 91 90 89 91 112 114 99 93 86 58 77 108 97 89 87 83 83 82 86 90 96 103 105 91
178 202 196 186 186 187 192 194 200 204 195 195 201 204 207 209 219 229 233 223 231 224 203 183 174 172 169 174 176 178 184 177 171 156 140 135 128 122 122 122 119 115 113 108 107 104 98 96 93 92 87 81 75 70 68 67 69 67 64 66 76 84 86 80 59 93 117 106 95 90 64 90 117 106 98 93 89 90 88 97 104 111 125 119 59
185 203 203 195 190 194 194 193 200 203 200 195 199 199 195 196 198 216 219 198 230 212 195 185 178 181 180 185 187 189 193 185 183 170 160 155 141 134 132 130 129 128 125 121 120 116 110 102 96 91 84 76 69 62 59 58 60 60 57 55 64 80 89 98 78 69 120 118 116 110 78 84 117 120 107 101 98 96 99 109 119 130 141 144 15
195 199 204 203 192 200 199 194 199 199 199 193 196 191 182 184 179 193 193 186 228 180 190 189 185 193 196 195 191 190 195 193 192 185 177 174 165 155 148 146 146 146 140 135 133 128 122 115 107 95 85 71 64 55 50 45 45 47 48 55 70 93 95 105 104 72 115 123 127 121 114 83 107 132 118 110 110 105 109 116 142 158 157 331 341
206 193 200 217 198 204 206 202 198 199 200 190 190 183 177 178 173 178 180 179 175 160 174 184 186 195 198 199 198 192 198 200 197 194 188 185 182 175 170 168 169 170 160 154 152 144 135 125 118 102 88 69 61 49 42 35 33 35 34 52 79 103 94 78 85 69 95 127 127 117 127 115 96 136 135 126 124 123 120 127 169 194 246 295 305
224 195 193 215 213 219 218 209 202 202 201 194 188 180 179 179 178 177 178 181 182 173 164 175 186 191 194 196 204 200 204 209 205 201 195 193 193 190 188 185 186 191 186 182 179 163 150 136 125 107 87 64 55 41 34 25 26 29 25 45 65 82 80 71 83 70 76 153 157 143 140 133 114 139 154 155 143 140 139 153 194 225 269 278 286
227 196 188 207 218 231 232 219 209 207 203 200 193 182 182 181 186 183 180 181 183 186 168 174 185 188 197 200 207 210 213 218 212 207 204 204 204 200 197 197 198 201 204 208 210 194 177 159 142 111 89 54 42 26 15 12 14 19 21 31 37 42 53 62 78 70 175 185 161 149 147 141 135 108 157 168 155 151 164 179 220 249 269 276 287
215 193 186 200 214 223 238 239 221 214 209 205 198 190 188 184 187 188 185 184 184 188 176 174 179 180 192 200 208 214 219 223 220 213 209 211 214 210 206 208 208 207 213 218 223 220 211 191 173 170 86 11 355 347 342 346 358 7 13 18 20 33 53 63 58 356 231 191 148 147 149 142 142 66 142 163 160 162 183 195 225 251 263 272 289
208 199 190 197 211 215 230 243 239 227 216 207 205 199 195 192 189 189 190 189 188 187 185 180 179 179 184 193 202 209 216 222 224 220 215 216 219 219 216 216 215 213 217 220 225 228 229 224 207 235 264 292 306 316 316 321 344 2 8 7 3 17 48 71 34 328 305 177 156 154 151 151 153 100 134 168 173 169 190 205 230 251 260 260 280
218 212 202 202 207 212 219 233 241 240 231 213 213 207 201 202 197 194 194 193 193 192 192 189 185 185 186 190 198 206 212 218 223 223 222 222 223 225 222 221 220 220 223 226 229 230 235 240 235 241 254 271 293 306 306 317 337 355 6 357 354 9 22 44 332 331 11 133 164 160 154 157 156 124 144 184 193 189 198 213 236 250 251 252 274
229 232 217 209 208 212 214 222 229 236 239 222 219 216 205 208 207 204 201 197 197 198 198 197 194 191 192 195 200 209 213 218 220 221 227 227 228 229 228 225 225 227 228 231 233 234 236 241 246 250 257 270 290 301 307 325 338 350 1 346 348 360 350 330 339 337 9 127 167 166 163 163 159 166 180 188 199 207 215 226 243 252 253 259 274
227 241 234 219 213 215 214 218 223 227 232 226 224 224 213 212 215 214 209 204 201 203 204 202 202 198 197 198 204 211 215 224 223 220 227 230 231 232 232 229 229 232 233 235 238 239 239 243 250 253 258 270 283 296 311 325 333 342 346 339 339 336 328 326 333 325 331 152 173 176 175 174 167 178 195 187 202 214 227 237 249 261 265 266 270
222 234 239 230 218 215 216 217 223 226 226 224 224 227 225 222 221 221 216 211 206 207 209 208 209 207 204 202 205 208 215 229 228 225 230 232 234 234 235 232 231 234 236 239 240 241 242 245 249 252 256 264 273 286 305 310 317 327 326 322 311 306 318 331 326 313 305 212 181 186 184 186 177 179 195 202 213 221 237 248 257 264 267 267 263
221 227 235 234 221 216 219 218 220 225 225 223 223 224 230 229 226 225 222 220 214 211 212 214 215 214 211 209 207 202 212 230 230 229 231 233 235 236 237 235 233 234 237 242 243 244 244 245 248 250 255 260 268 278 285 285 293 296 288 283 277 280 302 315 311 304 296 269 191 195 192 196 190 186 196 204 218 232 247 256 265 267 266 264 253
227 228 230 230 223 218 221 220 218 220 222 221 221 222 228 230 228 228 229 230 226 219 215 217 220 223 223 220 214 201 209 229 231 230 232 232 235 239 241 238 237 237 239 243 246 249 248 247 247 249 256 261 266 275 277 274 279 276 266 269 272 271 268 279 290 288 285 277 208 206 202 205 204 200 200 202 213 231 247 256 266 270 270 261 240
232 230 228 229 229 225 224 226 220 219 221 218 217 221 227 228 224 228 232 230 231 230 225 224 225 231 234 229 223 210 212 227 230 232 235 232 233 240 245 245 244 245 247 248 249 250 249 248 249 252 256 264 268 270 274 274 276 275 271 273 278 280 264 258 270 266 269 275 229 210 210 211 215 213 209 209 215 221 241 252 253 257 266 262 241
237 237 231 233 234 230 230 234 228 223 225 222 218 218 224 228 225 227 232 230 227 227 228 232 232 234 238 236 234 226 222 229 231 233 238 235 232 238 245 249 249 250 253 253 251 248 247 248 251 256 257 263 267 266 270 275 279 283 284 285 286 287 278 266 269 263 266 276 255 222 219 217 218 220 219 220 222 220 231 246 249 253 263 261 247
239 245 241 237 236 234 232 237 237 234 234 232 226 221 221 225 228 230 233 236 234 228 224 229 233 235 241 242 242 240 235 236 236 236 240 239 235 236 240 246 250 251 251 253 252 249 247 248 251 256 259 261 265 267 268 270 276 281 283 285 285 284 281 278 277 275 272 274 275 261 234 227 223 222 225 227 228 224 222 236 248 260 266 261 251
239 246 249 241 237 237 235 234 238 241 240 243 241 234 229 226 230 232 233 240 243 239 233 231 231 231 237 244 247 246 244 244 245 245 245 243 238 237 237 242 248 250 250 251 253 251 249 251 253 256 260 261 263 267 269 269 272 276 276 277 276 278 279 272 261 266 270 270 282 285 259 239 232 227 228 230 231 226 220 228 238 248 261 264 255
247 250 255 251 242 239 241 238 239 243 243 245 247 244 241 236 234 234 235 239 242 243 242 241 238 234 233 238 247 251 249 247 247 248 249 249 245 241 239 240 245 248 249 250 252 252 250 252 255 256 258 260 261 263 267 270 269 270 274 276 276 278 277 267 254 252 261 263 266 277 275 257 241 234 231 232 232 230 226 227 231 236 251 261 256
252 255 256 256 254 248 247 245 242 245 248 248 249 249 248 246 242 240 240 239 240 241 243 246 247 245 240 238 244 250 252 249 245 245 248 252 252 250 247 244 245 246 247 248 248 251 251 251 253 255 255 257 260 261 263 266 267 266 269 272 273 275 274 270 261 250 256 258 248 256 269 268 258 246 238 235 232 232 229 229 233 234 244 253 252
249 251 252 255 257 254 252 251 248 248 251 252 252 254 252 251 249 246 245 244 243 242 241 246 250 252 252 249 248 249 252 252 249 248 249 251 253 255 254 251 249 248 246 246 246 250 251 250 251 253 254 255 259 261 261 265 268 267 267 266 263 266 272 273 266 253 255 259 252 248 254 261 265 261 250 241 235 232 228 229 232 235 243 247 243
249 247 250 253 255 256 256 255 254 253 254 254 254 258 257 255 254 250 247 246 247 247 244 244 247 252 256 257 257 255 255 257 257 257 256 256 258 259 259 257 255 252 248 246 247 249 250 250 250 252 252 253 256 258 258 262 266 266 265 263 257 258 266 270 266 260 259 261 263 261 255 254 258 262 261 248 238 235 229 227 229 234 243 244 242
254 252 252 253 253 254 255 256 257 256 256 258 257 258 259 258 257 254 250 246 247 250 249 247 247 250 253 256 258 259 259 259 258 258 259 260 262 263 263 261 260 258 253 251 251 251 249 249 250 251 253 252 254 256 257 260 263 264 264 263 259 258 263 267 263 257 259 262 265 264 261 257 255 257 260 259 249 239 233 231 230 233 240 245 249
257 256 254 253 253 253 253 254 256 257 258 259 258 257 260 261 261 260 256 251 247 247 248 250 249 249 250 253 256 258 258 257 255 255 257 259 260 262 263 263 261 259 257 255 255 255 252 251 251 253 254 254 254 255 256 259 260 260 260 260 257 255 258 263 262 256 253 258 263 264 264 263 260 253 250 256 259 251 241 236 235 236 239 245 251
256 256 256 255 254 254 254 254 255 257 257 258 258 257 258 260 261 262 261 258 254 249 247 247 249 249 250 251 253 255 256 255 255 255 256 258 259 260 261 261 260 258 257 257 258 258 255 254 255 255 255 256 256 257 258 259 261 259 258 258 256 253 254 257 260 258 251 250 257 263 264 264 263 257 248 248 255 259 255 245 240 240 241 245 250
250 250 255 257 255 254 253 254 255 255 257 257 257 255 254 254 255 257 259 260 260 257 252 247 246 247 248 250 251 252 253 253 253 253 255 257 258 260 260 260 259 258 257 257 259 259 257 256 257 258 257 256 257 260 260 259 260 259 257 258 258 255 255 257 258 258 256 251 253 258 260 261 261 259 255 248 246 255 262 258 250 246 245 248 251
241 241 251 259 257 254 252 252 254 253 255 255 255 253 251 250 250 250 252 256 260 261 260 256 252 249 247 247 248 250 251 252 252 252 253 255 257 259 261 261 260 259 259 259 260 261 260 259 260 261 260 259 257 256 257 257 256 256 256 257 257 254 255 258 259 260 262 259 254 255 256 257 259 258 259 253 245 252 261 263 262 258 253 252 253
235 235 247 257 258 257 253 252 251 250 252 256 259 258 255 253 251 252 254 257 259 260 261 262 261 259 256 253 250 249 249 250 251 251 252 253 255 257 259 260 261 261 261 262 262 262 260 259 260 259 259 260 258 254 252 249 248 247 248 250 251 252 256 259 260 262 265 265 260 256 255 255 257 257 257 254 247 251 259 263 266 265 261 259 258
238 235 242 254 260 258 254 251 248 251 256 262 264 264 263 260 259 261 262 262 260 260 262 264 266 266 264 261 259 255 252 251 251 251 252 252 253 254 257 258 259 261 262 261 261 260 258 256 256 255 256 259 259 257 249 241 242 243 243 244 246 250 255 258 260 262 263 264 263 259 256 255 257 258 257 254 248 248 255 261 265 265 263 263 263
247 241 243 253 258 257 254 251 251 255 260 264 265 265 265 266 267 268 266 264 263 263 263 263 263 263 262 262 263 262 259 256 255 254 253 252 252 252 254 256 256 258 259 259 258 257 256 255 254 254 254 256 256 257 252 244 244 244 240 241 245 250 256 255 255 259 262 264 263 261 258 257 259 259 256 253 250 249 251 257 263 265 263 264 266
252 247 246 251 255 255 254 252 253 258 261 263 265 266 265 264 264 266 266 264 263 262 259 258 258 258 259 259 262 264 264 262 260 259 258 256 254 253 253 254 255 255 255 256 257 257 257 256 255 254 253 253 254 255 255 250 246 241 235 237 243 246 251 253 255 262 266 264 260 257 258 260 261 259 256 256 257 255 251 252 259 264 264 265 267
253 253 252 253 255 256 256 256 258 261 263 264 264 263 261 258 257 258 257 257 257 255 253 254 255 255 257 259 261 263 264 264 263 263 263 262 259 257 256 255 255 255 254 255 257 258 258 257 255 255 254 255 256 257 256 252 250 247 242 240 239 240 248 253 256 262 265 262 259 256 255 258 262 261 260 262 262 258 253 253 257 261 263 263 265
253 255 255 256 258 260 262 263 263 263 263 263 261 258 256 255 254 252 252 254 255 256 257 259 260 260 261 262 262 262 263 264 264 264 264 264 263 261 259 258 257 256 256 256 257 258 258 258 257 255 256 256 255 255 255 253 252 252 249 248 246 249 256 257 249 251 257 257 258 257 256 258 262 263 262 263 264 261 257 258 260 260 261 262 262
257 257 257 257 258 261 264 266 266 264 263 261 258 255 253 251 251 253 255 257 259 260 262 265 266 265 264 263 262 263 263 263 264 264 263 264 264 262 260 260 259 258 257 257 258 259 259 260 259 258 257 256 252 250 253 253 250 250 251 252 252 252 255 254 247 247 250 250 250 254 257 258 261 262 261 261 261 263 263 263 262 262 262 263 263
259 260 259 257 258 262 265 266 266 264 261 259 257 254 253 251 251 253 255 257 259 260 261 262 264 264 263 262 262 262 262 262 263 263 263 263 263 262 261 261 260 258 257 258 261 261 260 260 259 259 258 256 253 250 252 251 249 252 253 252 253 253 251 250 249 246 244 246 248 250 255 257 261 262 262 262 260 260 265 267 267 266 265 264 264
254 255 256 257 261 264 264 262 260 260 259 256 255 254 254 253 253 254 255 256 257 258 257 256 259 260 260 262 262 262 263 264 264 264 264 264 263 262 262 262 261 259 258 258 260 260 260 260 259 259 259 258 256 254 252 250 249 252 254 253 253 253 251 248 247 244 242 245 248 250 252 253 259 263 264 266 266 264 266 268 269 267 265 264 264
251 250 254 258 261 262 258 256 257 260 261 259 258 257 256 255 253 253 254 256 257 256 254 252 253 255 257 260 262 263 265 266 267 267 266 265 263 261 261 261 261 260 259 258 256 257 258 259 259 261 261 260 258 255 254 253 250 248 251 253 253 252 250 247 245 243 243 246 248 250 252 251 254 260 264 267 271 272 271 270 268 266 265 264 263
259 250 252 254 255 255 255 260 264 265 265 262 261 260 259 257 255 254 254 255 256 256 254 251 249 250 254 257 260 263 265 267 268 268 267 266 264 262 261 262 261 259 258 257 255 255 255 257 258 259 261 260 259 257 256 257 253 248 246 248 251 253 254 254 253 249 247 248 248 250 254 254 254 259 263 265 270 273 274 272 268 265 266 267 265